Regional Weather Roundup
Issued by NWS Upton, NY

Current Version | Previous Version | Graphics & Text | Print | Product List | Glossary Off
Versions: 1 2 3 4 5 6 7 8 9 10 11 12 13 14 15 16 17 18 19 20 21 22 23 24 25 26 27 28 29 30 31 32 33 34 35 36 37 38 39 40 41 42 43 44 45 46 47 48 49 50

000
ASUS41 KOKX 271505
RWROKX

REGIONAL WEATHER ROUNDUP
NATIONAL WEATHER SERVICE NEW YORK NY
1100 AM EDT WED AUG 27 2014

NOTE: "FAIR" INDICATES FEW OR NO CLOUDS BELOW 12,000 FEET WITH NO
SIGNIFICANT WEATHER AND/OR OBSTRUCTIONS TO VISIBILITY.

NYZ071-072-176-178-NJZ106-104-271600-
NEW YORK CITY METRO AREA


CITY           SKY/WX    TMP DP  RH WIND       PRES   REMARKS
CENTRAL PARK   SUNNY     82  62  50 W3        30.05F
LAGUARDIA APRT MOSUNNY   83  60  45 W8        30.01F
KENNEDY INTL   MOSUNNY   78  64  61 S9        30.04F
NEWARK/LIBERTY MOSUNNY   84  63  49 SW6       30.02F
BRNX BOT. GARD   N/A     84  63  48 E3        30.03R
TETERBORO      SUNNY     82  63  52 S6        30.00F
$$

NYZ177-179-078>081-271600-
LONG ISLAND NEW YORK

CITY           SKY/WX    TMP DP  RH WIND       PRES   REMARKS
FARMINGDALE    SUNNY     78  66  66 S8        30.03F
ISLIP          SUNNY     79  66  64 SW10      30.01F
SHIRLEY        SUNNY     79  65  62 SW12      30.04F
WESTHAMPTON    SUNNY     80  64  58 SW12G18   30.05S
MONTAUK POINT    N/A     78  66  66 SW8       30.04F
$$

NYZ052-065-067-271600-
HUDSON VALLEY

CITY           SKY/WX    TMP DP  RH WIND       PRES   REMARKS
WHITE PLAINS   SUNNY     81  62  52 CALM      30.02F
NEWBURGH       SUNNY     79  66  65 W10       30.03S
MONTGOMERY     SUNNY     81  65  58 SW6       30.00F
POUGHKEEPSIE   SUNNY     80  65  59 CALM      29.99F
ALBANY         PTSUNNY   79  65  62 S6        29.99S
$$

NJZ001-105-106-008-010-013-015-019>022-104-271600-
NEW JERSEY

CITY           SKY/WX    TMP DP  RH WIND       PRES   REMARKS
NEWARK/LIBERTY MOSUNNY   84  63  49 SW6       30.02F
TETERBORO      SUNNY     82  63  52 S6        30.00F
CALDWELL       CLOUDY    81  63  54 SW5       30.02F
MORRISTOWN     PTSUNNY   82  66  57 SW7       30.03F
SOMERVILLE     SUNNY     83  65  54 VRB5      30.01F
LINDEN         FAIR      87  65  48 NW6       30.04F
SUSSEX         SUNNY     80  65  59 SW7       30.03F
ANDOVER          N/A     78  64  61 S5        30.04F
TRENTON        SUNNY     80  65  59 SW7       30.04F
MILLVILLE      SUNNY     80  65  59 VRB5      30.06F
ATLANTIC CITY  SUNNY     80  58  46 VRB3      30.06F
WRIGHTSTOWN    SUNNY     80  67  63 VRB5      30.02F
TOMS RIVER     SUNNY     82  63  51 SW5       30.05F
BELMAR         SUNNY     79  64  61 S7        30.04F
$$

PAZ047>061-062-071-271600-
EASTERN PENNSYLVANIA

CITY           SKY/WX    TMP DP  RH WIND       PRES   REMARKS
PHILADELPHIA   MOSUNNY   80  65  59 SW7       30.05F
ALLENTOWN      SUNNY     81  63  54 W7        30.05S
SCRANTON       SUNNY     77  61  57 W7        30.06F
$$

CTZ002-004>006-009-010-012-RIZ004-006-007-MAZ004-011-015-271600-
SOUTHERN NEW ENGLAND
 IN CT

CITY           SKY/WX    TMP DP  RH WIND       PRES   REMARKS
BRADLEY INTL   MOSUNNY   83  65  54 S9        29.98F
HARTFORD       SUNNY     81  64  56 S7        29.99F
DANBURY        SUNNY     79  64  60 SW7       30.03F
WTRBRY/OXFORD  SUNNY     79  64  61 SW5       30.05F
BRIDGEPORT     SUNNY     78  67  68 SW12      30.01F
MERIDEN        SUNNY     82  64  54 VRB5      30.00F
NEW HAVEN      SUNNY     78  66  66 SW9       30.01F
CHESTER        FAIR      77  66  69 SW8       30.02F
GROTON         SUNNY     76  68  76 SW8       30.01F
WILLIMANTIC    SUNNY     80  64  58 SW8       30.00F

 IN RI

CITY           SKY/WX    TMP DP  RH WIND       PRES   REMARKS
PROVIDENCE     SUNNY     82  65  56 SW8       30.00F
BLOCK ISLAND   SUNNY     75  64  69 SW14G20   30.04S
WESTERLY       SUNNY     77  66  68 SW8G16    30.03F

 IN MA

CITY           SKY/WX    TMP DP  RH WIND       PRES   REMARKS
BOSTON         MOSUNNY   84  63  49 SW14      29.95F
WORCESTER      SUNNY     79  64  60 SW10      30.01F
WESTFIELD      SUNNY     81  66  60 SW6       29.99S
PROVINCETOWN   SUNNY     75  66  73 SW18G24   29.98F
NANTUCKET      MOSUNNY   72  68  87 SW10      30.04S
$$

ANZ330-335-338-340-345-350-353-355-271600-
COASTAL MARINE OBSERVATIONS


STATION/POSITION TIME  SKY/WX   TEMP    WIND        PRES    VSBY  WAVE
                                AIR SEA DIR/SP/G                  HT/PER
                 (UTC)          (F)     (DEG/KT/KT) (MB)    (MI)  (FT/S)
NY HARB ENTRANCE NOT AVBL
4S FIRE IS       NOT AVBL
23SW MTP         1500                                 N/A           4/ 9
HUDSON CANYON    1500            71 73  290/  4/  6 1017.6          4/11
EXECUTION ROCKS  1500            79 75  200/  8/ 10   N/A
WESTERN LI SOUND 1500            78     210/  6/  8   N/A           0
CENTRAL LI SOUND 1400            74 73  210/ 10/ 12   N/A           1/ 3
EASTERN LI SOUND 1400            73 69  230/  8/ 10   N/A
ROBBINS REEF     1500            74     160/ 11/ 12   N/A
$$


>>>>>>>>>>>>>>>>>>>>>>>>>>>> KEY <<<<<<<<<<<<<<<<<<<<<<<<<<<
>                                                          <
>     SKY/WX - SKY CONDITION/PRESENT WEATHER               <
>     TMP    - TEMPERATURE IN FAHRENHEIT                   <
>     DP     - DEWPOINT IN FAHRENHEIT                      <
>     RH     - RELATIVE HUMIDITY IN PERCENT                <
>     WIND   - DIRECTION AND SPEED IN MPH                  <
>     PRES   - MEAN SEA LEVEL PRESSURE IN INCHES OF HG     <
>     WCI    - WIND CHILL INDEX                            <
>     VSB    - VISIBILITY IN MILES                         <
>     HX     - HEAT INDEX                                  <
>     TC     - TEMPERATURE IN CELSIUS                      <
>     VRB    - VARIABLE WIND DIRECTION                     <
>                                                          <
>>>>>>>>>>>>>>>>>>>>>>>>>>>> KEY <<<<<<<<<<<<<<<<<<<<<<<<<<<





USA.gov is the U.S. government's official web portal to all federal, state and local government web resources and services.